,,,PA_Meas_PMT16A,,PR_Meas_QMR101_102,,RH_Meas_QMH101,,SR_Meas_QMS101,,TA_Meas_QMH101,,GenWind,,GenWind,
date,time,status,PA,status,PR,status,RH,status,SR,status,TA,status,DirAvg,status,SpdAvg,
2008-03-23, 00:00:05,VALID,1009.07,VALID,0,VALID,95.9396,VALID,0.105969,VALID,23.2441,VALID,194,VALID,0,
2008-03-23, 00:01:05,VALID,1009.08,VALID,0,VALID,95.9549,VALID,0,VALID,23.2654,VALID,194,VALID,0,
2008-03-23, 00:02:05,VALID,1009.06,VALID,0,VALID,95.9396,VALID,0.105969,VALID,23.2654,VALID,194,VALID,0,
2008-03-23, 00:03:05,VALID,1009.05,VALID,0,VALID,96.0006,VALID,0,VALID,23.2654,VALID,194,VALID,0,
2008-03-23, 00:04:05,VALID,1009.06,VALID,0,VALID,95.9777,VALID,0.105969,VALID,23.2459,VALID,194,VALID,0,
2008-03-23, 00:05:05,VALID,1009.05,VALID,0,VALID,96.0235,VALID,0,VALID,23.2459,VALID,194,VALID,0,
2008-03-23, 00:06:05,VALID,1009.07,VALID,0,VALID,96.0616,VALID,0.105969,VALID,23.2654,VALID,194,VALID,0,
2008-03-23, 00:07:05,VALID,1009.07,VALID,0,VALID,96.0845,VALID,0,VALID,23.2654,VALID,194,VALID,0,
2008-03-23, 00:08:04,VALID,1009.09,VALID,0,VALID,96.0845,VALID,0.105969,VALID,23.2636,VALID,194,VALID,0,
2008-03-23, 00:09:04,VALID,1009.08,VALID,0,VALID,96.0769,VALID,0.105969,VALID,23.2654,VALID,194,VALID,0,
2008-03-23, 00:10:04,VALID,1009.12,VALID,0,VALID,96.0769,VALID,0,VALID,23.2848,VALID,194,VALID,0,
2008-03-23, 00:11:04,VALID,1009.12,VALID,0,VALID,96.0769,VALID,0.105969,VALID,23.2654,VALID,194,VALID,0,
2008-03-23, 00:12:04,VALID,1009.13,VALID,0,VALID,96.054,VALID,0,VALID,23.2654,VALID,194,VALID,0,
2008-03-23, 00:13:04,VALID,1009.12,VALID,0,VALID,96.0616,VALID,0.105969,VALID,23.2654,VALID,194,VALID,0,
2008-03-23, 00:14:04,VALID,1009.13,VALID,0,VALID,96.0921,VALID,0.105969,VALID,23.2459,VALID,194,VALID,0,
2008-03-23, 00:15:04,VALID,1009.16,VALID,0,VALID,96.0997,VALID,0.105969,VALID,23.2441,VALID,194,VALID,0,
2008-03-23, 00:16:04,VALID,1009.17,VALID,0,VALID,96.0997,VALID,0,VALID,23.2654,VALID,194,VALID,0,
2008-03-23, 00:17:04,VALID,1009.19,VALID,0,VALID,96.0845,VALID,0.105969,VALID,23.2654,VALID,194,VALID,0,
2008-03-23, 00:18:04,VALID,1009.16,VALID,0,VALID,96.0692,VALID,0.105969,VALID,23.2654,VALID,194,VALID,0,
2008-03-23, 00:19:04,VALID,1009.19,VALID,0,VALID,96.0387,VALID,0,VALID,23.2459,VALID,194,VALID,0,
2008-03-23, 00:20:04,VALID,1009.17,VALID,0,VALID,96.0387,VALID,0,VALID,23.2459,VALID,194,VALID,0,
2008-03-23, 00:21:04,VALID,1009.18,VALID,0,VALID,96.0235,VALID,0,VALID,23.2459,VALID,194,VALID,0,
2008-03-23, 00:22:04,VALID,1009.18,VALID,0,VALID,96.0235,VALID,0,VALID,23.2264,VALID,194,VALID,0,
2008-03-23, 00:23:04,VALID,1009.16,VALID,0,VALID,96.0464,VALID,0,VALID,23.2246,VALID,194,VALID,0,
2008-03-23, 00:24:04,VALID,1009.17,VALID,0,VALID,96.0692,VALID,0,VALID,23.2654,VALID,194,VALID,0,
2008-03-23, 00:25:04,VALID,1009.18,VALID,0,VALID,96.0769,VALID,0,VALID,23.2246,VALID,194,VALID,0,
2008-03-23, 00:26:04,VALID,1009.19,VALID,0,VALID,96.115,VALID,0.105969,VALID,23.2636,VALID,194,VALID,0,
2008-03-23, 00:27:04,VALID,1009.2,VALID,0,VALID,96.1379,VALID,0,VALID,23.2636,VALID,194,VALID,0,
2008-03-23, 00:28:04,VALID,1009.22,VALID,0,VALID,96.1608,VALID,0.105969,VALID,23.2831,VALID,194,VALID,0,
2008-03-23, 00:29:04,VALID,1009.2,VALID,0,VALID,96.176,VALID,0.105969,VALID,23.3026,VALID,194,VALID,0,
2008-03-23, 00:30:04,VALID,1009.17,VALID,0,VALID,96.1455,VALID,0,VALID,23.3238,VALID,194,VALID,0,
2008-03-23, 00:31:04,VALID,1009.18,VALID,0,VALID,96.176,VALID,0.105969,VALID,23.3628,VALID,194,VALID,0,
2008-03-23, 00:32:04,VALID,1009.17,VALID,0,VALID,96.176,VALID,0,VALID,23.3433,VALID,194,VALID,0,
2008-03-23, 00:33:04,VALID,1009.12,VALID,0,VALID,96.1608,VALID,0,VALID,23.3823,VALID,194,VALID,0,
2008-03-23, 00:34:04,VALID,1009.14,VALID,0,VALID,96.1074,VALID,0,VALID,23.3823,VALID,194,VALID,0,
2008-03-23, 00:35:04,VALID,1009.11,VALID,0,VALID,96.0616,VALID,0,VALID,23.3823,VALID,194,VALID,0,
2008-03-23, 00:36:04,VALID,1009.11,VALID,0,VALID,96.0616,VALID,0.105969,VALID,23.4017,VALID,194,VALID,0,
2008-03-23, 00:37:04,VALID,1009.09,VALID,0,VALID,96.0159,VALID,0.105969,VALID,23.3805,VALID,194,VALID,0,
2008-03-23, 00:38:04,VALID,1009.08,VALID,0,VALID,96.0006,VALID,0,VALID,23.4017,VALID,194,VALID,0,
2008-03-23, 00:39:04,VALID,1009.07,VALID,0,VALID,95.9396,VALID,0,VALID,23.4017,VALID,194,VALID,0,
2008-03-23, 00:40:04,VALID,1009.06,VALID,0,VALID,95.8939,VALID,0,VALID,23.4017,VALID,194,VALID,0,
2008-03-23, 00:41:04,VALID,1009.04,VALID,0,VALID,95.8633,VALID,0,VALID,23.4017,VALID,194,VALID,0,
2008-03-23, 00:42:04,VALID,1009.04,VALID,0,VALID,95.8557,VALID,0.105969,VALID,23.4017,VALID,194,VALID,0,
2008-03-23, 00:43:04,VALID,1009.02,VALID,0,VALID,95.8481,VALID,0.105969,VALID,23.3805,VALID,194,VALID,0,
2008-03-23, 00:44:04,VALID,1009.01,VALID,0,VALID,95.8328,VALID,0.105969,VALID,23.4212,VALID,194,VALID,0,
2008-03-23, 00:45:04,VALID,1008.99,VALID,0,VALID,95.8557,VALID,0.105969,VALID,23.4212,VALID,194,VALID,0,
2008-03-23, 00:46:04,VALID,1008.96,VALID,0,VALID,95.9015,VALID,0.105969,VALID,23.4194,VALID,194,VALID,0,
2008-03-23, 00:47:04,VALID,1008.95,VALID,0,VALID,95.9396,VALID,0.105969,VALID,23.4602,VALID,194,VALID,0,
2008-03-23, 00:48:04,VALID,1008.93,VALID,0,VALID,96.0235,VALID,0.105969,VALID,23.4779,VALID,194,VALID,0,
2008-03-23, 00:49:04,VALID,1008.92,VALID,0,VALID,96.0159,VALID,0,VALID,23.4992,VALID,194,VALID,0,
2008-03-23, 00:50:04,VALID,1008.92,VALID,0,VALID,96.0845,VALID,0,VALID,23.5186,VALID,167,VALID,0.384375,
2008-03-23, 00:51:04,VALID,1008.92,VALID,0,VALID,96.1074,VALID,0,VALID,23.5381,VALID,162,VALID,0.405859,
2008-03-23, 00:52:04,VALID,1008.9,VALID,0,VALID,96.0997,VALID,0.105969,VALID,23.5576,VALID,161,VALID,0.332812,
2008-03-23, 00:53:04,VALID,1008.89,VALID,0,VALID,96.0845,VALID,0,VALID,23.5576,VALID,153,VALID,0.204297,
2008-03-23, 00:54:04,VALID,1008.89,VALID,0,VALID,96.0616,VALID,0,VALID,23.5771,VALID,153,VALID,0,
2008-03-23, 00:55:04,VALID,1008.88,VALID,0,VALID,96.054,VALID,0,VALID,23.5771,VALID,153,VALID,0,
2008-03-23, 00:56:04,VALID,1008.88,VALID,0,VALID,96.0311,VALID,0,VALID,23.5753,VALID,153,VALID,0,
2008-03-23, 00:57:04,VALID,1008.9,VALID,0,VALID,96.0159,VALID,0,VALID,23.6161,VALID,153,VALID,0,
2008-03-23, 00:58:04,VALID,1008.92,VALID,0,VALID,95.9701,VALID,0,VALID,23.5966,VALID,153,VALID,0,
2008-03-23, 00:59:04,VALID,1008.9,VALID,0,VALID,95.9549,VALID,0,VALID,23.6161,VALID,153,VALID,0,
2008-03-23, 01:00:04,VALID,1008.92,VALID,0,VALID,95.8633,VALID,0,VALID,23.5966,VALID,152,VALID,0,
2008-03-23, 01:01:04,VALID,1008.93,VALID,0,VALID,95.7566,VALID,0,VALID,23.5771,VALID,111,VALID,0.316016,
2008-03-23, 01:02:04,VALID,1008.93,VALID,0,VALID,95.7185,VALID,0.105969,VALID,23.5576,VALID,73,VALID,0.389062,
2008-03-23, 01:03:04,VALID,1008.92,VALID,0,VALID,95.6803,VALID,0,VALID,23.5576,VALID,65,VALID,0.364062,
2008-03-23, 01:04:04,VALID,1008.91,VALID,0,VALID,95.6193,VALID,0,VALID,23.5381,VALID,58,VALID,0.378125,
2008-03-23, 01:05:04,VALID,1008.88,VALID,0,VALID,95.5812,VALID,0.105969,VALID,23.5381,VALID,59,VALID,0.415625,
2008-03-23, 01:06:04,VALID,1008.86,VALID,0,VALID,95.5431,VALID,0,VALID,23.5186,VALID,59,VALID,0.369922,
2008-03-23, 01:07:04,VALID,1008.83,VALID,0,VALID,95.5736,VALID,0,VALID,23.5186,VALID,66,VALID,0.538281,
2008-03-23, 01:08:04,VALID,1008.82,VALID,0,VALID,95.6269,VALID,0,VALID,23.5381,VALID,72,VALID,0.58125,
2008-03-23, 01:09:04,VALID,1008.77,VALID,0,VALID,95.5659,VALID,0,VALID,23.5186,VALID,63,VALID,0.340625,
2008-03-23, 01:10:04,VALID,1008.79,VALID,0,VALID,95.5431,VALID,0,VALID,23.5169,VALID,62,VALID,0.337891,
2008-03-23, 01:11:04,VALID,1008.75,VALID,0,VALID,95.5126,VALID,0,VALID,23.5204,VALID,59,VALID,0.280859,
2008-03-23, 01:12:04,VALID,1008.73,VALID,0,VALID,95.5507,VALID,0,VALID,23.5186,VALID,53,VALID,0.0976563,
2008-03-23, 01:13:04,VALID,1008.72,VALID,0,VALID,95.5583,VALID,0,VALID,23.5399,VALID,53,VALID,0.00664063,
2008-03-23, 01:14:04,VALID,1008.74,VALID,0,VALID,95.5659,VALID,0,VALID,23.5399,VALID,53,VALID,0.105078,
2008-03-23, 01:15:04,VALID,1008.73,VALID,0,VALID,95.5583,VALID,0,VALID,23.5186,VALID,53,VALID,0.275781,
2008-03-23, 01:16:04,VALID,1008.7,VALID,0,VALID,95.5278,VALID,0,VALID,23.5204,VALID,53,VALID,0.0136719,
2008-03-23, 01:17:04,VALID,1008.7,VALID,0,VALID,95.5964,VALID,0,VALID,23.5204,VALID,60,VALID,0.452734,
2008-03-23, 01:18:04,VALID,1008.69,VALID,0,VALID,95.6346,VALID,0,VALID,23.5399,VALID,72,VALID,0.437109,
2008-03-23, 01:19:04,VALID,1008.7,VALID,0,VALID,95.6269,VALID,0,VALID,23.5576,VALID,72,VALID,0.513281,
2008-03-23, 01:20:04,VALID,1008.67,VALID,0,VALID,95.6041,VALID,0,VALID,23.5399,VALID,64,VALID,0.494922,
2008-03-23, 01:21:04,VALID,1008.66,VALID,0,VALID,95.6193,VALID,0,VALID,23.5594,VALID,72,VALID,0.330078,
2008-03-23, 01:22:04,VALID,1008.63,VALID,0,VALID,95.6041,VALID,0,VALID,23.5594,VALID,72,VALID,0.269531,
2008-03-23, 01:23:04,VALID,1008.62,VALID,0,VALID,95.5888,VALID,0,VALID,23.5594,VALID,72,VALID,0.330469,
2008-03-23, 01:24:04,VALID,1008.64,VALID,0,VALID,95.6117,VALID,0,VALID,23.5594,VALID,72,VALID,0.302344,
2008-03-23, 01:25:04,VALID,1008.61,VALID,0,VALID,95.6117,VALID,0,VALID,23.5789,VALID,72,VALID,0.337891,
2008-03-23, 01:26:04,VALID,1008.63,VALID,0,VALID,95.6193,VALID,0.105969,VALID,23.5753,VALID,72,VALID,0.333203,
2008-03-23, 01:27:04,VALID,1008.61,VALID,0,VALID,95.5812,VALID,0.105969,VALID,23.5753,VALID,67,VALID,0.551172,
2008-03-23, 01:28:04,VALID,1008.58,VALID,0,VALID,95.5278,VALID,0,VALID,23.5966,VALID,63,VALID,0.437109,
2008-03-23, 01:29:04,VALID,1008.61,VALID,0,VALID,95.4973,VALID,0,VALID,23.5966,VALID,65,VALID,0.519141,
2008-03-23, 01:30:04,VALID,1008.57,VALID,0,VALID,95.4592,VALID,0,VALID,23.5966,VALID,60,VALID,0.535937,
2008-03-23, 01:31:04,VALID,1008.57,VALID,0,VALID,95.4363,VALID,0.105969,VALID,23.5966,VALID,73,VALID,0.566016,
2008-03-23, 01:32:04,VALID,1008.57,VALID,0,VALID,95.4363,VALID,0,VALID,23.5771,VALID,75,VALID,0.688281,
2008-03-23, 01:33:04,VALID,1008.57,VALID,0,VALID,95.4287,VALID,0.105969,VALID,23.5966,VALID,84,VALID,0.590234,
2008-03-23, 01:34:04,VALID,1008.56,VALID,0,VALID,95.4744,VALID,0,VALID,23.5771,VALID,91,VALID,0.403906,
2008-03-23, 01:35:04,VALID,1008.59,VALID,0,VALID,95.4744,VALID,0.105969,VALID,23.5771,VALID,83,VALID,0.330469,
2008-03-23, 01:36:04,VALID,1008.57,VALID,0,VALID,95.4744,VALID,0.105969,VALID,23.5576,VALID,93,VALID,0.511719,
2008-03-23, 01:37:04,VALID,1008.57,VALID,0,VALID,95.4363,VALID,0.105969,VALID,23.5576,VALID,95,VALID,0.866406,
2008-03-23, 01:38:04,VALID,1008.56,VALID,0,VALID,95.4363,VALID,0.105969,VALID,23.5576,VALID,86,VALID,0.665234,
2008-03-23, 01:39:04,VALID,1008.55,VALID,0,VALID,95.4516,VALID,0,VALID,23.5381,VALID,76,VALID,0.635547,
2008-03-23, 01:40:04,VALID,1008.56,VALID,0,VALID,95.4744,VALID,0.105969,VALID,23.5381,VALID,77,VALID,0.384766,
2008-03-23, 01:41:04,VALID,1008.56,VALID,0,VALID,95.4744,VALID,0.105969,VALID,23.5381,VALID,78,VALID,0.438281,
2008-03-23, 01:42:04,VALID,1008.56,VALID,0,VALID,95.4897,VALID,0.105969,VALID,23.5381,VALID,78,VALID,0.494141,
2008-03-23, 01:43:04,VALID,1008.53,VALID,0,VALID,95.5049,VALID,0.105969,VALID,23.5186,VALID,89,VALID,0.495703,
2008-03-23, 01:44:04,VALID,1008.55,VALID,0,VALID,95.4744,VALID,0.105969,VALID,23.5363,VALID,76,VALID,0.539063,
2008-03-23, 01:45:04,VALID,1008.51,VALID,0,VALID,95.5049,VALID,0.105969,VALID,23.5381,VALID,76,VALID,0.611719,
2008-03-23, 01:46:04,VALID,1008.5,VALID,0,VALID,95.5278,VALID,0,VALID,23.5381,VALID,79,VALID,0.604297,
2008-03-23, 01:47:04,VALID,1008.5,VALID,0,VALID,95.5278,VALID,0.105969,VALID,23.5576,VALID,89,VALID,0.432031,
2008-03-23, 01:48:04,VALID,1008.5,VALID,0,VALID,95.4821,VALID,0.105969,VALID,23.5169,VALID,55,VALID,0.508984,
2008-03-23, 01:49:04,VALID,1008.49,VALID,0,VALID,95.4516,VALID,0.105969,VALID,23.5363,VALID,67,VALID,0.458203,
2008-03-23, 01:50:04,VALID,1008.5,VALID,0,VALID,95.4516,VALID,0.105969,VALID,23.5169,VALID,71,VALID,0.477344,
2008-03-23, 01:51:04,VALID,1008.51,VALID,0,VALID,95.4439,VALID,0.105969,VALID,23.5169,VALID,61,VALID,0.358203,
2008-03-23, 01:52:04,VALID,1008.48,VALID,0,VALID,95.4516,VALID,0.105969,VALID,23.5381,VALID,71,VALID,0.353906,
2008-03-23, 01:53:04,VALID,1008.49,VALID,0,VALID,95.4439,VALID,0.105969,VALID,23.5186,VALID,72,VALID,0.205469,
2008-03-23, 01:54:04,VALID,1008.5,VALID,0,VALID,95.4897,VALID,0.105969,VALID,23.5186,VALID,67,VALID,0.276172,
2008-03-23, 01:55:04,VALID,1008.49,VALID,0,VALID,95.4897,VALID,0.105969,VALID,23.5186,VALID,67,VALID,0.221875,
2008-03-23, 01:56:04,VALID,1008.48,VALID,0,VALID,95.5202,VALID,0,VALID,23.5204,VALID,67,VALID,0.370313,
2008-03-23, 01:57:04,VALID,1008.49,VALID,0,VALID,95.5278,VALID,0,VALID,23.5204,VALID,67,VALID,0.308594,
2008-03-23, 01:58:04,VALID,1008.48,VALID,0,VALID,95.5354,VALID,0,VALID,23.5009,VALID,45,VALID,0.175,
2008-03-23, 01:59:04,VALID,1008.45,VALID,0,VALID,95.5583,VALID,0,VALID,23.5204,VALID,45,VALID,0.254687,
2008-03-23, 02:00:04,VALID,1008.45,VALID,0,VALID,95.5736,VALID,0,VALID,23.5204,VALID,59,VALID,0.409766,
2008-03-23, 02:01:04,VALID,1008.43,VALID,0,VALID,95.5812,VALID,0,VALID,23.4992,VALID,62,VALID,0.275391,
2008-03-23, 02:02:04,VALID,1008.39,VALID,0,VALID,95.6346,VALID,0,VALID,23.5399,VALID,85,VALID,0.541406,
2008-03-23, 02:03:04,VALID,1008.38,VALID,0,VALID,95.6269,VALID,0,VALID,23.5399,VALID,73,VALID,0.686328,
2008-03-23, 02:04:04,VALID,1008.38,VALID,0,VALID,95.6269,VALID,0,VALID,23.5381,VALID,87,VALID,0.635938,
2008-03-23, 02:05:04,VALID,1008.36,VALID,0,VALID,95.6193,VALID,0,VALID,23.5594,VALID,88,VALID,0.788672,
2008-03-23, 02:06:04,VALID,1008.36,VALID,0,VALID,95.6041,VALID,0,VALID,23.5771,VALID,100,VALID,0.417969,
2008-03-23, 02:07:04,VALID,1008.35,VALID,0,VALID,95.5736,VALID,0,VALID,23.5771,VALID,120,VALID,0.882031,
2008-03-23, 02:08:04,VALID,1008.34,VALID,0,VALID,95.4287,VALID,0,VALID,23.6179,VALID,115,VALID,0.992578,
2008-03-23, 02:09:04,VALID,1008.32,VALID,0,VALID,95.3372,VALID,0,VALID,23.6179,VALID,109,VALID,0.814844,
2008-03-23, 02:10:04,VALID,1008.32,VALID,0,VALID,95.2685,VALID,0,VALID,23.6373,VALID,106,VALID,0.663281,
2008-03-23, 02:11:04,VALID,1008.29,VALID,0,VALID,95.116,VALID,0,VALID,23.6179,VALID,96,VALID,1.09609,
2008-03-23, 02:12:04,VALID,1008.31,VALID,0,VALID,95.055,VALID,0,VALID,23.6179,VALID,97,VALID,1.27266,
2008-03-23, 02:13:04,VALID,1008.28,VALID,0,VALID,95.0245,VALID,0,VALID,23.5984,VALID,96,VALID,0.757813,
2008-03-23, 02:14:04,VALID,1008.25,VALID,0,VALID,95.0321,VALID,0,VALID,23.5984,VALID,119,VALID,0.817969,
2008-03-23, 02:15:04,VALID,1008.26,VALID,0,VALID,95.0474,VALID,0,VALID,23.5984,VALID,116,VALID,0.976172,
2008-03-23, 02:16:04,VALID,1008.22,VALID,0,VALID,95.055,VALID,0,VALID,23.5771,VALID,95,VALID,0.496484,
2008-03-23, 02:17:04,VALID,1008.2,VALID,0,VALID,95.0779,VALID,0,VALID,23.5984,VALID,108,VALID,0.973047,
2008-03-23, 02:18:04,VALID,1008.16,VALID,0,VALID,95.0855,VALID,0,VALID,23.5576,VALID,119,VALID,1.04648,
2008-03-23, 02:19:04,VALID,1008.14,VALID,0,VALID,95.0779,VALID,0,VALID,23.5984,VALID,119,VALID,0.899609,
2008-03-23, 02:20:04,VALID,1008.13,VALID,0,VALID,95.0703,VALID,0,VALID,23.5789,VALID,126,VALID,0.899609,
2008-03-23, 02:21:04,VALID,1008.13,VALID,0,VALID,95.1084,VALID,0,VALID,23.5771,VALID,96,VALID,0.700391,
2008-03-23, 02:22:04,VALID,1008.11,VALID,0,VALID,95.116,VALID,0,VALID,23.5984,VALID,133,VALID,0.572656,
2008-03-23, 02:23:04,VALID,1008.08,VALID,0,VALID,95.0626,VALID,0,VALID,23.5789,VALID,145,VALID,0.520703,
2008-03-23, 02:24:04,VALID,1008.06,VALID,0,VALID,95.0931,VALID,0,VALID,23.5594,VALID,128,VALID,0.404297,
2008-03-23, 02:25:04,VALID,1008.06,VALID,0,VALID,95.1618,VALID,0,VALID,23.5186,VALID,128,VALID,0.623828,
2008-03-23, 02:26:04,VALID,1008.07,VALID,0,VALID,95.177,VALID,0,VALID,23.5204,VALID,127,VALID,0.403906,
2008-03-23, 02:27:04,VALID,1008.07,VALID,0,VALID,95.2838,VALID,0,VALID,23.5204,VALID,127,VALID,0.321875,
2008-03-23, 02:28:04,VALID,1008.1,VALID,0,VALID,95.3753,VALID,0,VALID,23.5186,VALID,127,VALID,0.0488281,
2008-03-23, 02:29:04,VALID,1008.08,VALID,0,VALID,95.3982,VALID,0,VALID,23.5399,VALID,127,VALID,0,
2008-03-23, 02:30:04,VALID,1008.08,VALID,0,VALID,95.3753,VALID,0,VALID,23.5186,VALID,114,VALID,0.201562,
2008-03-23, 02:31:04,VALID,1008.07,VALID,0,VALID,95.3753,VALID,0,VALID,23.5399,VALID,89,VALID,0.150781,
2008-03-23, 02:32:04,VALID,1008.07,VALID,0,VALID,95.36,VALID,0,VALID,23.4992,VALID,86,VALID,0.38125,
2008-03-23, 02:33:04,VALID,1008.07,VALID,0,VALID,95.36,VALID,0,VALID,23.5204,VALID,60,VALID,0.350391,
2008-03-23, 02:34:04,VALID,1008.11,VALID,0,VALID,95.3524,VALID,0,VALID,23.5009,VALID,60,VALID,0.266797,
2008-03-23, 02:35:04,VALID,1008.12,VALID,0,VALID,95.3448,VALID,0,VALID,23.5204,VALID,52,VALID,0.466406,
2008-03-23, 02:36:04,VALID,1008.11,VALID,0,VALID,95.3753,VALID,0,VALID,23.5009,VALID,51,VALID,0.347266,
2008-03-23, 02:37:04,VALID,1008.09,VALID,0,VALID,95.3982,VALID,0,VALID,23.4815,VALID,50,VALID,0.48125,
2008-03-23, 02:38:04,VALID,1008.11,VALID,0,VALID,95.4287,VALID,0,VALID,23.4815,VALID,50,VALID,0.295703,
2008-03-23, 02:39:04,VALID,1008.15,VALID,0,VALID,95.4668,VALID,0,VALID,23.4815,VALID,61,VALID,0.287109,
2008-03-23, 02:40:04,VALID,1008.11,VALID,0,VALID,95.5049,VALID,0,VALID,23.4602,VALID,62,VALID,0.320313,
2008-03-23, 02:41:04,VALID,1008.11,VALID,0,VALID,95.5278,VALID,0,VALID,23.4815,VALID,62,VALID,0.181641,
2008-03-23, 02:42:04,VALID,1008.1,VALID,0,VALID,95.5659,VALID,0,VALID,23.462,VALID,62,VALID,0,
2008-03-23, 02:43:04,VALID,1008.09,VALID,0,VALID,95.5736,VALID,0,VALID,23.4425,VALID,62,VALID,0,
2008-03-23, 02:44:04,VALID,1008.09,VALID,0,VALID,95.6041,VALID,0,VALID,23.462,VALID,62,VALID,0.0078125,
2008-03-23, 02:45:04,VALID,1008.07,VALID,0,VALID,95.688,VALID,0,VALID,23.462,VALID,81,VALID,0.365234,
2008-03-23, 02:46:04,VALID,1008.05,VALID,0,VALID,95.7108,VALID,0,VALID,23.4832,VALID,100,VALID,0.552734,
2008-03-23, 02:47:04,VALID,1008.03,VALID,0,VALID,95.7185,VALID,0,VALID,23.4815,VALID,101,VALID,0.662891,
2008-03-23, 02:48:04,VALID,1008.02,VALID,0,VALID,95.7795,VALID,0,VALID,23.4602,VALID,103,VALID,0.765234,
2008-03-23, 02:49:04,VALID,1008.02,VALID,0,VALID,95.8176,VALID,0,VALID,23.5009,VALID,109,VALID,0.379297,
2008-03-23, 02:50:04,VALID,1008.03,VALID,0,VALID,95.8405,VALID,0,VALID,23.5009,VALID,147,VALID,0.504687,
2008-03-23, 02:51:04,VALID,1008.02,VALID,0,VALID,95.8023,VALID,0,VALID,23.5009,VALID,147,VALID,0.44375,
2008-03-23, 02:52:04,VALID,1008.02,VALID,0,VALID,95.749,VALID,0,VALID,23.4815,VALID,155,VALID,0.350391,
2008-03-23, 02:53:04,VALID,1008,VALID,0,VALID,95.7337,VALID,0,VALID,23.5009,VALID,166,VALID,0.461719,
2008-03-23, 02:54:04,VALID,1007.99,VALID,0,VALID,95.749,VALID,0,VALID,23.4602,VALID,169,VALID,0.489453,
2008-03-23, 02:55:04,VALID,1007.99,VALID,0,VALID,95.7795,VALID,0,VALID,23.4815,VALID,170,VALID,0.442969,
2008-03-23, 02:56:04,VALID,1008.01,VALID,0,VALID,95.7871,VALID,0.105969,VALID,23.4797,VALID,174,VALID,0.539844,
2008-03-23, 02:57:04,VALID,1007.99,VALID,0,VALID,95.8481,VALID,0,VALID,23.4584,VALID,174,VALID,0.360156,
2008-03-23, 02:58:04,VALID,1007.98,VALID,0,VALID,95.8481,VALID,0.105969,VALID,23.4797,VALID,174,VALID,0.329297,
2008-03-23, 02:59:04,VALID,1007.96,VALID,0,VALID,95.8557,VALID,0,VALID,23.4797,VALID,174,VALID,0.480859,
2008-03-23, 03:00:04,VALID,1007.97,VALID,0,VALID,95.871,VALID,0,VALID,23.4389,VALID,174,VALID,0.436328,
2008-03-23, 03:01:04,VALID,1007.97,VALID,0,VALID,95.8481,VALID,0,VALID,23.4602,VALID,174,VALID,0.548047,
2008-03-23, 03:02:04,VALID,1007.96,VALID,0,VALID,95.8786,VALID,0,VALID,23.4407,VALID,174,VALID,0.447656,
2008-03-23, 03:03:04,VALID,1007.95,VALID,0,VALID,95.9091,VALID,0,VALID,23.4194,VALID,174,VALID,0.491016,
2008-03-23, 03:04:04,VALID,1007.97,VALID,0,VALID,95.9091,VALID,0,VALID,23.4407,VALID,168,VALID,0.499219,
2008-03-23, 03:05:04,VALID,1007.94,VALID,0,VALID,95.932,VALID,0,VALID,23.4389,VALID,167,VALID,0.448047,
2008-03-23, 03:06:04,VALID,1007.99,VALID,0,VALID,95.9472,VALID,0,VALID,23.4407,VALID,167,VALID,0.495313,
2008-03-23, 03:07:04,VALID,1007.96,VALID,0,VALID,95.9777,VALID,0,VALID,23.4407,VALID,167,VALID,0.373437,
2008-03-23, 03:08:04,VALID,1007.98,VALID,0,VALID,95.993,VALID,0,VALID,23.4602,VALID,167,VALID,0.235156,
2008-03-23, 03:09:04,VALID,1007.97,VALID,0,VALID,95.9854,VALID,0,VALID,23.4407,VALID,167,VALID,0.242578,
2008-03-23, 03:10:04,VALID,1007.97,VALID,0,VALID,96.0235,VALID,0,VALID,23.4407,VALID,167,VALID,0.289453,
2008-03-23, 03:11:04,VALID,1007.99,VALID,0,VALID,96.0464,VALID,0.105969,VALID,23.4389,VALID,167,VALID,0.236719,
2008-03-23, 03:12:04,VALID,1007.98,VALID,0,VALID,96.0464,VALID,0,VALID,23.4389,VALID,168,VALID,0.28125,
2008-03-23, 03:13:04,VALID,1007.97,VALID,0,VALID,96.0464,VALID,0,VALID,23.4602,VALID,168,VALID,0.351563,
2008-03-23, 03:14:04,VALID,1007.97,VALID,0,VALID,96.0464,VALID,0,VALID,23.4602,VALID,168,VALID,0.266406,
2008-03-23, 03:15:04,VALID,1007.99,VALID,0,VALID,96.0311,VALID,0,VALID,23.4602,VALID,168,VALID,0.251563,
2008-03-23, 03:16:04,VALID,1007.97,VALID,0,VALID,96.0464,VALID,0,VALID,23.4797,VALID,168,VALID,0.179688,
2008-03-23, 03:17:04,VALID,1007.95,VALID,0,VALID,96.0311,VALID,0,VALID,23.4797,VALID,168,VALID,0.235938,
2008-03-23, 03:18:04,VALID,1007.97,VALID,0,VALID,96.0082,VALID,0,VALID,23.4602,VALID,168,VALID,0.366016,
2008-03-23, 03:19:04,VALID,1007.96,VALID,0,VALID,96.0235,VALID,0,VALID,23.4602,VALID,167,VALID,0.177734,
2008-03-23, 03:20:04,VALID,1007.99,VALID,0,VALID,96.0235,VALID,0,VALID,23.4797,VALID,165,VALID,0.426562,
2008-03-23, 03:21:04,VALID,1007.97,VALID,0,VALID,96.0006,VALID,0,VALID,23.4779,VALID,147,VALID,0.496484,
2008-03-23, 03:22:04,VALID,1007.99,VALID,0,VALID,96.0387,VALID,0,VALID,23.5186,VALID,133,VALID,0.541797,
2008-03-23, 03:23:04,VALID,1007.99,VALID,0,VALID,96.0006,VALID,0.105969,VALID,23.5186,VALID,132,VALID,0.432422,
2008-03-23, 03:24:04,VALID,1007.99,VALID,0,VALID,95.9472,VALID,0.105969,VALID,23.5381,VALID,130,VALID,0.510938,
2008-03-23, 03:25:04,VALID,1008.01,VALID,0,VALID,95.9396,VALID,0,VALID,23.5576,VALID,119,VALID,0.734766,
2008-03-23, 03:26:04,VALID,1008,VALID,0,VALID,95.8939,VALID,0,VALID,23.5789,VALID,118,VALID,0.45,
2008-03-23, 03:27:04,VALID,1008,VALID,0,VALID,95.8405,VALID,0,VALID,23.5984,VALID,111,VALID,0.564062,
2008-03-23, 03:28:04,VALID,1008.02,VALID,0,VALID,95.7413,VALID,0,VALID,23.6179,VALID,132,VALID,0.707422,
2008-03-23, 03:29:04,VALID,1008.01,VALID,0,VALID,95.6727,VALID,0,VALID,23.6179,VALID,139,VALID,0.789453,
2008-03-23, 03:30:04,VALID,1008,VALID,0,VALID,95.6117,VALID,0,VALID,23.6373,VALID,134,VALID,0.776563,
2008-03-23, 03:31:04,VALID,1008.01,VALID,0,VALID,95.5202,VALID,0,VALID,23.6161,VALID,130,VALID,0.659766,
2008-03-23, 03:32:04,VALID,1007.99,VALID,0,VALID,95.4516,VALID,0,VALID,23.6568,VALID,137,VALID,0.506641,
2008-03-23, 03:33:04,VALID,1007.99,VALID,0,VALID,95.3905,VALID,0,VALID,23.6179,VALID,137,VALID,0.457031,
2008-03-23, 03:34:04,VALID,1007.99,VALID,0,VALID,95.4211,VALID,0,VALID,23.6568,VALID,157,VALID,0.6,
2008-03-23, 03:35:04,VALID,1008.03,VALID,0,VALID,95.4287,VALID,0,VALID,23.6373,VALID,158,VALID,0.403516,
2008-03-23, 03:36:04,VALID,1008.02,VALID,0,VALID,95.4363,VALID,0,VALID,23.6568,VALID,158,VALID,0.353906,
2008-03-23, 03:37:04,VALID,1008.03,VALID,0,VALID,95.4516,VALID,0,VALID,23.6568,VALID,146,VALID,0.334766,
2008-03-23, 03:38:04,VALID,1008.02,VALID,0,VALID,95.4363,VALID,0,VALID,23.6568,VALID,133,VALID,0.468359,
2008-03-23, 03:39:04,VALID,1008.03,VALID,0,VALID,95.4134,VALID,0,VALID,23.6568,VALID,130,VALID,0.223047,
2008-03-23, 03:40:04,VALID,1008.02,VALID,0,VALID,95.4363,VALID,0,VALID,23.6568,VALID,130,VALID,0.367188,
2008-03-23, 03:41:04,VALID,1008.05,VALID,0,VALID,95.4363,VALID,0.105969,VALID,23.655,VALID,131,VALID,0.0683594,
2008-03-23, 03:42:04,VALID,1008.06,VALID,0,VALID,95.4134,VALID,0,VALID,23.655,VALID,131,VALID,0.0046875,
2008-03-23, 03:43:04,VALID,1008.03,VALID,0,VALID,95.4058,VALID,0.105969,VALID,23.655,VALID,130,VALID,0.0257812,
2008-03-23, 03:44:04,VALID,1008.05,VALID,0,VALID,95.3982,VALID,0,VALID,23.6356,VALID,131,VALID,0,
2008-03-23, 03:45:04,VALID,1008.01,VALID,0,VALID,95.3753,VALID,0,VALID,23.6356,VALID,130,VALID,0,